Location: Molalla
(45.1473°N, 122.5770°W)
Time: 11:18:39
(UTC-08:00)

Vanguard 2 - All Passes

Search period start: 13 November 2019 00:00
Search period end: 23 November 2019 00:00
Orbit: 554 x 2937 km, 32.9° (Epoch: 12 November)

Date Brightness Start Highest point End Pass type
(mag) Time Alt. Az. Time Alt. Az. Time Alt. Az.
13 Nov - 09:01:18 10° SSE 09:01:37 10° SSE 09:01:57 10° SSE daylight
13 Nov - 11:06:02 10° SW 11:09:37 17° S 11:12:34 10° SE daylight
13 Nov - 13:14:36 10° SW 13:17:07 15° S 13:19:28 10° SSE daylight
14 Nov - 09:15:49 10° SSW 09:19:26 14° SSE 09:22:25 10° SE daylight
14 Nov - 11:23:27 10° SW 11:27:21 19° S 11:30:31 10° SE daylight
14 Nov - 13:32:44 10° SW 13:34:45 13° SSW 13:36:42 10° SSE daylight
15 Nov - 09:32:24 10° SSW 09:37:14 18° S 09:40:58 10° SE daylight
15 Nov - 11:41:05 10° SW 11:45:04 20° S 11:48:18 10° SE daylight
15 Nov - 13:51:40 10° SSW 13:52:23 10° SSW 13:53:05 10° S daylight
16 Nov - 07:42:39 10° S 07:46:36 13° SSE 07:49:54 10° SE daylight
16 Nov - 09:49:29 10° SW 09:55:02 22° S 09:59:08 10° SE daylight
16 Nov - 11:58:53 10° SW 12:02:46 19° S 12:05:55 10° SE daylight
17 Nov - 07:58:26 10° SSW 08:04:26 18° SSE 08:09:01 10° SE daylight
17 Nov - 10:06:53 10° SW 10:12:49 24° S 10:17:04 10° SE daylight
17 Nov - 12:16:52 10° WSW 12:20:24 18° SSW 12:23:21 10° SSE daylight
18 Nov - 06:10:48 10° SSE 06:13:16 11° SSE 06:15:32 10° SE visible
18 Nov - 08:15:03 10° SSW 08:22:17 22° SSE 08:27:27 10° ESE daylight
18 Nov - 10:24:30 10° WSW 10:30:33 26° S 10:34:52 10° SE daylight
18 Nov - 12:35:04 10° SW 12:38:00 15° SSW 12:40:31 10° SSE daylight
19 Nov - 06:24:45 10° S 06:31:07 16° SSE 06:36:13 10° ESE visible
19 Nov - 08:32:07 10° SW 08:40:06 26° S 08:45:35 10° ESE daylight
19 Nov - 10:42:15 10° WSW 10:48:17 26° S 10:52:33 10° SE daylight
19 Nov - 12:53:47 10° SW 12:55:32 12° SSW 12:57:07 10° S daylight
20 Nov - 06:40:34 10° SSW 06:48:58 21° SSE 06:55:10 10° ESE visible
20 Nov - 08:49:29 10° SW 08:57:55 30° S 09:03:32 10° ESE daylight
20 Nov - 11:00:09 10° WSW 11:05:56 25° SSW 11:10:07 10° SE daylight
21 Nov - 04:52:37 10° S 04:57:19 12° SSE 05:01:28 10° SE visible
21 Nov - 06:57:06 10° SSW 07:06:49 26° SSE 07:13:36 10° ESE daylight
21 Nov - 09:07:03 10° WSW 09:15:42 32° S 09:21:21 10° ESE daylight
21 Nov - 11:18:11 10° WSW 11:23:33 22° SSW 11:27:30 10° SSE daylight
22 Nov - 05:06:48 10° S 05:15:07 17° SSE 05:21:47 10° ESE visible
22 Nov - 07:14:04 10° SW 07:24:39 31° SSE 07:31:45 10° ESE daylight
22 Nov - 09:24:47 10° WSW 09:33:27 33° S 09:39:05 10° ESE daylight
22 Nov - 11:36:25 10° WSW 11:41:05 19° SSW 11:44:40 10° SSE daylight
